sat.trackr.live / text

‹ back to catalog

ONEWEB-0386

NORAD 49312 · 2021-090AK

PAYLOAD ACTIVE UNKNOWN

§ Identity

Operator
Country
UK
Launch date
2021-10-14
Launch site
VOSTO
Launch vehicle
Mass (kg)
RCS (m²)

Purposes: comms

External: N2YO · Heavens-Above · Gunter

§ Orbital elements

Epoch: 2026-09-19T16:48:05.538240Z

Period
109.03 min
Inclination
87.9156°
Eccentricity
0.0002292
Mean motion
13.20785133 rev/d
Perigee alt
1,180.0 km
Apogee alt
1,183.5 km
Semi-major
7,559.9 km
B*
-2.0143e-3
RAAN
255.5763°
Arg perigee
83.8614°
Mean anomaly
276.2780°
Rev number
24,229

§ Raw data

ONEWEB-03861 49312U 21090AK  26262.70006410 -.00000806  00000+0 -20143-2 0  99942 49312  87.9156 255.5763 0002292  83.8614 276.2780 13.20785133242299

JSON: /api/v1/satellites/49312 · /tle

For live sub-satellite position, see the globe view (requires WebGL).

§ Visibility from observer

Set your observer location to see the next 7 days of passes ≥ 10°. The values pass through the URL so the page stays shareable.

No JS? Fill the form by hand. The geolocation button needs JavaScript.